Regional Weather Roundup
Issued by NWS Burlington, VT

Home | Current Version | Previous Version | Text Only | Print | Product List | Glossary On
Versions: 1 2 3 4 5 6 7 8 9 10 11 12 13 14 15 16 17 18 19 20 21 22 23 24 25 26 27 28 29 30 31 32 33 34 35 36 37 38 39 40 41 42 43 44 45 46 47 48 49 50
000
ASUS41 KBTV 181830
RWRBTV
VERMONT REGIONAL WEATHER ROUNDUP
NATIONAL WEATHER SERVICE BURLINGTON VT
200 PM EDT FRI AUG 18 2017

NOTE: "FAIR" INDICATES FEW OR NO CLOUDS BELOW 12,000 FEET WITH NO
SIGNIFICANT WEATHER AND/OR OBSTRUCTIONS TO VISIBILITY.

* THESE REPORTS ARE NOT UNDER NWS QUALITY CONTROL AND/OR DO NOT
  REPORT WEATHER SUCH AS PRECIPITATION AND FOG.

VTZ001>019-181900-
_____VERMONT_____


CITY           SKY/WX    TMP DP  RH WIND       PRES   REMARKS
BURLINGTON     PTSUNNY   79  71  76 S15G22    29.75F
6HR MIN TEMP:  63; 6HR MAX TEMP:  79; 6HR PCP:  0.30;

MONTPELIER     CLOUDY    65  63  93 VRB5      29.89F
6HR MIN TEMP:  59; 6HR MAX TEMP:  65; 6HR PCP:  0.65;

MORRISVILLE    CLOUDY    66  61  84 SW6       29.84F
6HR MIN TEMP:  59; 6HR MAX TEMP:  66; 6HR PCP:  0.23;

ST. JOHNSBURY*   N/A     64  62  93 MISG      29.84F
6HR MIN TEMP:  58; 6HR MAX TEMP:  64; 6HR PCP:  0.81;

LYNDONVILLE*   CLOUDY    63  60  91 SE5       29.88F
6HR MIN TEMP:  57; 6HR MAX TEMP:  63;

MIDDLEBURY*    CLOUDY    75  70  84 S10G17    29.79S
6HR MIN TEMP:  63; 6HR MAX TEMP:  76; 6HR PCP:  0.48;

RUTLAND*       LGT RAIN  69  66  90 SE13      29.82F
6HR MIN TEMP:  63; 6HR MAX TEMP:  69; 6HR PCP:  0.20;

SPRINGFIELD    LGT RAIN  65  63  93 CALM      29.85F FOG
6HR MIN TEMP:  60; 6HR MAX TEMP:  65; 6HR PCP:  0.53;

HIGHGATE*      FAIR      81  71  73 S12       29.72F
6HR MIN TEMP:  62; 6HR MAX TEMP:  79;

NEWPORT*       CLOUDY    68  63  83 S12G17    29.83S
6HR MIN TEMP:  57; 6HR MAX TEMP:  69;

BENNINGTON     LGT RAIN  74  71  91 W3        29.83S FOG
6HR MIN TEMP:  71; 6HR MAX TEMP:  75; 6HR PCP:  0.13;

SUTTON*          N/A     61 N/A N/A MISG        N/A
ISLAND POND*     N/A     64 N/A N/A E5          N/A
GALLUP MILLS*    N/A     64 N/A N/A MISG        N/A
UNION VILLAGE*   N/A     63 N/A N/A MISG        N/A
MT. MANSFIELD*   N/A     64 N/A N/A SW21        N/A

_____LAKE CHAMPLAIN_____


CITY           SKY/WX    TMP DP  RH WIND       PRES   REMARKS
BURTON ISLAND*   N/A     75  70  83 S17         N/A
COLCHESTER RF*   N/A     73  70  88 S21         N/A
DIAMOND ISL*     N/A     73  70  88 S14         N/A

$$

NYZ007-026>031-035-052-083-087-181900-
_____NORTHERN NEW YORK_____


CITY           SKY/WX    TMP DP  RH WIND       PRES   REMARKS
PLATTSBURGH    MOSUNNY   76  68  76 SE17      29.72F
6HR MIN TEMP:  63; 6HR MAX TEMP:  77; 6HR PCP: TRACE;

SARANAC LAKE   MOSUNNY   78  69  73 SW12      29.77S
6HR MIN TEMP:  65; 6HR MAX TEMP:  81; 6HR PCP:  0.14;

MASSENA        MOSUNNY   84  72  67 SW8       29.69F
6HR MIN TEMP:  64; 6HR MAX TEMP:  85; 6HR PCP: TRACE;

OGDENSBURG*    FAIR      85  70  60 SW9G22    29.69S HX  90
6HR MIN TEMP:  71; 6HR MAX TEMP:  85;

POTSDAM*       MOSUNNY   84  70  61 SW16G24   29.71S
STARK FALLS*     N/A     81 N/A N/A SW8         N/A
WATERTOWN      SUNNY     83  71  67 SW15G23   29.72F
6HR MIN TEMP:  74; 6HR MAX TEMP:  83;

FT DRUM        MOSUNNY   82  68  63 W15G22    29.73F
6HR MIN TEMP:  74; 6HR MAX TEMP:  82;

ALBANY         HVY RAIN  74  72  93 SW5       29.80F VSB 3/4
GLENS FALLS    LGT RAIN  73  71  93 S7        29.79S
6HR MIN TEMP:  62; 6HR MAX TEMP:  73; 6HR PCP:  0.10;


$$
NHZ002-005-011-181900-
_____NEW HAMPSHIRE_____


CITY           SKY/WX    TMP DP  RH WIND       PRES   REMARKS
LEBANON        LGT RAIN  66  64  93 VRB3      29.85F FOG
6HR MIN TEMP:  62; 6HR MAX TEMP:  66; 6HR PCP:  0.83;

KEENE            N/A    N/A N/A N/A MISG        N/A
MT WASHINGTON  FOG       50  50 100 SW16G28     N/A  VSB 0
6HR MIN TEMP:  46; 6HR MAX TEMP:  51; 6HR PCP:  0.67;

PLYMOUTH       CLOUDY    60  58  93 CALM      29.91S FOG
6HR MIN TEMP:  58; 6HR MAX TEMP:  60; 6HR PCP:  1.04;

WHITEFIELD     CLOUDY    72  62  71 SW6       29.85F
6HR MIN TEMP:  61; 6HR MAX TEMP:  70; 6HR PCP:  0.38;


$$

_____REGIONAL QUEBEC LOCATIONS_____


CITY           SKY/WX    TMP DP  RH WIND       PRES   REMARKS
MONTREAL       PTSUNNY   72  68  88 N9        29.72F
QUEBEC CITY    LGT RAIN  63  57  82 E14G22    29.86F
SHERBROOKE     CLOUDY    68  63  83 SE8       29.81F

_____REGIONAL ONTARIO LOCATIONS_____


CITY           SKY/WX    TMP DP  RH WIND       PRES   REMARKS
OTTAWA         PTSUNNY   72  68  88 E8        29.69F

______KEY______
VSB  - VISIBILITY IN MILES
WCI  - WIND CHILL INDEX
HX   - HEAT INDEX
$$
NNNN




USA.gov is the U.S. government's official web portal to all federal, state and local government web resources and services.